Location: Karcze
(52.0945°N, 22.4786°E)
Time: 01:15:46
(UTC+00:00)

Transit 2A Rocket - Pass Details

Date: 06 August 2021
Orbit: 586 x 917 km, 66.7° (Epoch: 27 September)

Event Time Altitude Azimuth Distance (km) Brightness Sun altitude
Rises 13:44:48 0° 264° (W) 2,952 8.9 38.7°
Reaches altitude 10° 13:47:22 10° 278° (W) 2,093 8.2 38.3°
Maximum altitude 13:51:17 25° 334° (NNW) 1,418 6.7 37.8°
Drops below altitude 10° 13:55:31 10° 29° (NNE) 2,274 7.2 37.2°
Sets 13:58:26 0° 42° (NE) 3,267 7.8 36.7°
